Location: Smithsonian NASM Public Observatory
(38.8879°N, 77.0185°W)
Time: 05:58:51
(UTC-04:00)

Daily predictions for brighter satellites

Satellite Brightness Start Highest point End
(mag) Time Altitude Azimuth Time Altitude Azimuth Time Altitude Azimuth
Cosmos 2333 Rocket 3.8 00:21:21 31° NW 00:21:21 31° NW 00:25:58 10° N
Cosmos 2237 Rocket 3.7 00:26:25 33° NNW 00:26:25 33° NNW 00:30:19 10° N
ATLAS 2AS CENTAUR R/B 3.7 00:32:49 43° ENE 00:32:49 43° ENE 00:38:13 10° NE
Cosmos 2278 Rocket 4.0 00:25:11 10° NW 00:27:48 26° NW 00:27:48 26° NW
CZ-2C R/B 4.3 00:37:31 10° NNE 00:40:15 31° NNE 00:40:15 31° NNE
ATLAS 3B R/B 3.5 01:00:42 10° NNW 01:06:04 45° NNE 01:06:04 45° NNE
USA 238 DEB 4.4 01:17:26 10° NNW 01:23:52 49° NE 01:23:52 49° NE
USA 238 4.4 01:17:32 10° NNW 01:24:01 49° NE 01:24:01 49° NE
Cosmos 2369 Rocket 3.8 01:22:54 10° N 01:26:16 31° NNE 01:26:16 31° NNE
USA 215 4.0 01:35:17 10° NE 01:39:38 45° NE 01:39:38 45° NE
SL-16 R/B 4.2 01:46:55 20° NW 01:46:55 20° NW 01:50:19 10° N
Cosmos 1943 Rocket 3.8 01:42:13 10° N 01:46:26 30° NE 01:46:26 30° NE
NOSS 3-4 (A) 4.2 02:22:20 47° ENE 02:22:20 47° ENE 02:27:07 10° NE
NOSS 3-4 (C) 4.2 02:22:26 46° ENE 02:22:26 46° ENE 02:27:13 10° NE
ATLAS 2AS CENTAUR R/B 4.0 02:20:13 33° WNW 02:21:47 35° NW 02:29:07 10° NNE
NOSS 3-2 (A) 4.1 02:29:24 10° NNW 02:37:00 74° NE 02:38:59 54° ESE
Cosmos 1943 4.4 02:43:07 34° NNW 02:43:07 34° NNW 02:47:04 10° N
Aureole 1 Rocket 4.5 02:51:19 42° NE 02:51:19 42° NE 02:54:14 10° NNE
Nadezhda 3 Rocket 4.1 03:01:16 69° E 03:01:21 69° E 03:07:39 10° NNE
NPP 4.0 02:58:45 10° NNE 03:03:10 61° N 03:03:10 61° N
Lacrosse 5 rocket 3.5 03:05:58 24° E 03:05:58 24° E 03:08:27 10° ENE
Resurs 1-4 Rocket 2.9 03:03:30 10° NNE 03:08:30 43° E 03:08:31 43° E
Cosmos 2369 Rocket 4.4 03:07:23 10° NW 03:08:01 13° NW 03:08:01 13° NW
Spot 4 Rocket 4.5 03:08:37 10° NNE 03:13:23 56° E 03:13:23 56° E
CZ-2D R/B 2.5 03:13:36 10° NNE 03:18:47 53° E 03:18:55 53° ESE
Cosmos 1680 Rocket 3.9 03:23:12 54° NNW 03:23:12 54° NNW 03:27:37 10° NNE
RESURS DK-1 3.7 03:25:43 37° NNE 03:25:43 37° NNE 03:28:20 10° NNE
USA 215 4.4 03:18:41 10° NNE 03:24:27 34° NNW 03:26:59 26° WNW
COSMOS 2455 2.7 03:21:57 10° NNW 03:28:00 86° ENE 03:29:08 61° SE
Cosmos 1943 Rocket 3.9 03:25:52 10° NW 03:27:55 21° NW 03:27:55 21° NW
ADEOS 3.6 03:25:45 10° NNE 03:30:59 70° ESE 03:31:11 69° ESE
Cosmos 192 4.5 03:35:33 67° NNW 03:35:33 67° NNW 03:39:57 10° NNE
Cosmos 1953 Rocket 4.3 03:35:11 49° E 03:35:11 49° E 03:39:30 10° NNE
COSMOS 2406 3.1 03:35:40 75° W 03:35:52 76° WNW 03:41:39 10° NNE
NOSS 2-2 (E) 4.2 03:36:50 50° E 03:36:50 50° E 03:40:36 10° NE
IRS-1D 3.4 03:32:53 10° NNE 03:38:08 85° ESE 03:38:24 80° SSE
IRS P6 4.4 03:33:03 10° NNE 03:38:22 89° WNW 03:38:38 82° SSW
Meteor 2-8 Rocket 4.3 03:41:08 67° SW 03:41:48 73° W 03:47:57 10° N
SL-27 R/B 4.0 03:43:36 34° NNE 03:43:36 34° NNE 03:45:45 10° NNE
NOSS 3-2 (C) 4.0 03:39:29 10° NW 03:46:57 57° WSW 03:50:12 36° S
ARIANE 5 R/B 2.4 03:44:04 10° N 03:49:19 82° WNW 03:49:48 73° SW
Cosmos 1821 Rocket 3.8 03:43:33 10° N 03:49:40 80° W 03:51:18 51° S
CZ-2D R/B 4.3 03:46:07 10° NNE 03:49:58 41° E 03:50:23 39° ESE
COBE Rocket 3.8 03:47:23 10° NNE 03:52:27 86° E 03:53:04 69° S
SL-16 R/B 2.4 03:51:39 53° SSW 03:52:58 67° WSW 03:59:08 10° NNW
Cosmos 1707 4.5 03:52:34 24° ESE 03:53:42 28° E 03:57:04 10° NNE
Cosmos 1371 Rocket 3.9 03:50:01 10° NNW 03:55:24 79° WSW 03:56:33 56° S
USA 267 3.1 03:49:23 10° SE 03:55:56 77° SW 04:02:30 10° NW
Cosmos 1825 Rocket 3.7 03:58:07 59° NW 03:58:07 59° NW 04:02:05 10° N
CENTAUR R/B 3.4 03:50:03 10° NNW 03:57:58 70° NE 04:06:23 10° SE
ADEOS Rocket 3.0 03:51:58 10° N 03:58:01 73° WNW 04:00:01 46° SW
Cosmos 2239 Rocket 4.4 03:53:59 10° NNW 04:00:04 64° W 04:01:34 49° SSW
Cosmos 1470 3.8 03:58:21 10° N 04:02:05 44° E 04:03:45 27° SE
Cosmos 1953 2.4 03:59:22 10° N 04:02:57 70° NNW 04:02:57 70° NNW
GEOS 3 Rocket 4.0 03:59:37 10° NNE 04:04:44 51° NW 04:05:55 43° W
Cosmos 1535 Rocket 4.5 04:01:22 10° NNW 04:07:28 60° W 04:09:16 43° SSW
Cosmos 1818 3.5 04:07:00 51° SSW 04:08:25 86° ESE 04:13:54 10° NNE
Cosmos 1605 Rocket 4.0 04:04:04 10° N 04:10:18 80° E 04:15:44 14° S
COSMOS 2487 3.8 04:09:56 30° SE 04:10:41 34° ESE 04:13:56 10° NE
Cosmos 1934 Rocket 3.9 04:05:31 10° NNW 04:11:46 69° W 04:14:56 31° SSW
NOSS 2-2 (D) 3.3 04:11:50 67° W 04:12:08 71° NW 04:16:40 10° NNE
Okean O Rocket 3.7 04:10:11 10° NE 04:13:46 24° E 04:17:19 10° SSE
ADEOS II 3.9 04:10:06 10° NE 04:14:33 27° E 04:18:58 10° SSE
Cosmos 839 Rocket 4.5 04:09:19 10° NNW 04:15:41 70° ENE 04:23:13 10° SE
UNKNOWN OBJECT B 2.7 04:11:43 10° N 04:15:43 76° WNW 04:16:04 69° SW
Cosmos 1758 4.0 04:15:56 10° NNW 04:19:10 40° WNW 04:19:10 40° WNW
NOSS 2-2 (C) 3.9 04:29:42 39° W 04:30:35 46° NW 04:35:01 10° NNE
Tiangong 1 1.5 04:33:00 45° NNW 04:33:25 50° NNE 04:36:10 10° E
Cosmos 1733 3.2 04:36:26 10° NNW 04:40:11 57° W 04:41:24 37° SSW
Cosmos 2098 Rocket 2.2 04:39:07 10° NNW 04:41:44 50° WNW 04:41:44 50° WNW
Cosmos 1697 Rocket 4.4 04:38:07 10° N 04:43:14 35° ENE 04:48:19 10° SE
Lacrosse 5 rocket 2.4 04:41:41 27° W 04:43:35 41° NW 04:48:00 10° NNE
Delta 2 Rocket 3.0 04:45:44 43° SSW 04:46:12 47° S 04:49:27 10° ESE
MOS 1 Rocket 3.2 04:42:54 10° N 04:47:11 59° WNW 04:49:34 26° SW
USA 161 2.5 04:48:14 31° WNW 04:48:14 31° WNW 04:50:17 10° NNW
Cosmos 2278 3.8 04:41:55 10° NNW 04:47:41 79° ENE 04:53:23 10° SSE
Cosmos 389 Rocket 2.6 04:44:10 10° NNW 04:47:42 51° W 04:49:03 31° SSW
Resurs 1-4 Rocket 3.4 04:44:00 10° NNW 04:48:02 23° WNW 04:49:36 20° W
Cosmos 1842 Rocket 3.9 04:46:39 10° N 04:51:03 68° E 04:55:27 10° SSE
Cosmos-2242 3.3 04:48:17 10° NNW 04:52:31 46° W 04:55:20 19° SSW
CZ-4B R/B 3.4 04:49:30 10° NNE 04:53:49 68° ESE 04:58:16 10° S
Cosmos 2369 3.7 04:49:24 10° NNW 04:55:11 89° ENE 05:00:55 10° SSE
Meteor 2-5 Rocket 3.7 04:52:46 15° SSW 04:57:30 69° W 05:03:19 10° N
CZ-2D R/B 3.6 04:54:47 10° NNW 04:58:24 19° WNW 05:00:15 16° W
PSLV R/B 4.1 04:54:58 10° NNE 04:59:16 58° E 05:03:31 10° S
MOS 1-B 4.5 04:54:53 10° N 05:00:35 60° WNW 05:05:27 14° SSW
Cosmos 921 Rocket 4.2 04:57:39 10° NW 05:01:17 24° W 05:02:20 22° WSW
Cosmos 2061 Rocket 4.1 04:59:47 10° N 05:06:03 79° E 05:12:13 10° S
Cosmos 2221 3.8 05:07:54 10° N 05:12:01 43° E 05:16:04 10° SSE
Cosmos 2082 Rocket 2.2 05:08:27 12° SSW 05:13:49 78° WNW 05:19:33 10° NNE
Cosmos 1833 Rocket 2.7 05:09:32 10° SSW 05:15:03 83° WNW 05:20:42 10° NNE
Cosmos 1980 Rocket 3.8 05:11:38 10° N 05:16:58 39° ENE 05:22:14 10° SE
DNEPR-1 R/B 3.7 05:13:14 10° NW 05:17:20 49° WSW 05:21:45 10° SSE
Meteor 2-1 Rocket 4.4 05:12:59 10° N 05:18:40 82° E 05:24:26 10° S
Cosmos 1656 3.5 05:15:13 10° NNW 05:20:40 82° WSW 05:26:05 10° SSE
Cosmos 158 Rocket 3.9 05:15:44 10° SSW 05:20:42 81° WNW 05:25:52 10° NNE
CZ-4B R/B 3.1 05:17:43 10° NNE 05:23:06 81° WNW 05:28:23 10° SSW
PAYLOAD B 4.2 05:17:40 10° N 05:23:14 73° WNW 05:28:44 10° SSW
Cosmos 2123 Rocket 4.5 05:17:28 10° S 05:23:42 66° E 05:29:57 10° NNE
CZ-2C R/B 3.7 05:19:56 10° SSE 05:24:21 84° ENE 05:28:49 10° NNW
Orbus 7S? 2.4 05:21:57 10° NW 05:24:52 89° NE 05:27:29 10° SE
Okean-O 4.2 05:21:06 10° NNE 05:25:15 37° E 05:29:21 10° SSE
Cosmos 2016 Rocket 4.1 05:20:13 10° N 05:26:30 88° E 05:32:49 10° S
Meteor PRIRODA 4.1 05:25:31 10° NNE 05:29:12 64° E 05:32:51 10° S
EXPRESS MD2 3.1 05:25:09 10° NW 05:29:29 69° NNE 05:32:00 10° ESE
Cosmos 1707 4.4 05:27:49 13° WSW 05:29:39 17° WNW 05:32:13 10° NNW
Cosmos 972 Rocket 4.4 05:25:27 10° NNW 05:31:56 88° WSW 05:37:37 10° SSE
Meteor 1-31 Rocket 3.6 05:29:37 10° NNE 05:33:27 53° E 05:37:17 10° S
Cosmos 1452 Rocket 4.3 05:32:03 10° NW 05:36:34 30° W 05:41:03 10° SSW
Okean 3 Rocket 3.5 05:32:38 10° S 05:37:00 78° W 05:41:27 10° N
USA 267 4.5 05:35:30 10° SSW 05:39:32 17° WSW 05:43:34 10° W
ERS-2 3.5 05:37:06 10° NNE 05:40:37 41° E 05:44:06 10° S
Cosmos 1802 Rocket 4.2 05:35:24 10° NNW 05:41:43 59° W 05:47:56 10° S
IRS-1C Rocket 4.4 05:39:57 10° N 05:44:59 48° WNW 05:50:01 10° SW
Cosmos 1908 4.0 05:41:28 10° N 05:45:16 57° E 05:49:05 10° SSE
CENTAUR R/B 3.9 05:41:42 10° NW 05:48:17 28° WSW 05:55:04 10° SSW
Cosmos 1459 Rocket 4.4 05:43:56 10° NNW 05:49:40 41° W 05:55:27 10° SSW
Okean O Rocket 2.6 05:46:17 10° N 05:50:06 29° WNW 05:53:53 10° SW
BREEZE-M DEB (TANK) 3.8 05:45:00 10° SW 05:52:28 56° SSE 05:55:33 10° ENE
